owner,sensor,date,latitude,longitude,vertical_datum,wind_speed,wind_to_direction,wind_speed_of_gust,qcFlag 
TCOON,ioos:station:TCOON:031:1,2009-01-01T00:00:00Z,28.4073,-96.7122,0.0,2.7,58.0,4.8,'11111222,11111222,11111222' 
TCOON,ioos:station:TCOON:031:1,2009-01-01T01:00:00Z,28.4073,-96.7122,0.0,3.0,58.0,4.9,'11111222,11111222,11111222' 
TCOON,ioos:station:TCOON:031:1,2009-01-01T03:00:00Z,28.4073,-96.7122,0.0,3.3,51.0,4.5,'11111222,11111222,11111222' 
TCOON,ioos:station:TCOON:031:1,2009-01-01T04:00:00Z,28.4073,-96.7122,0.0,3.3,57.0,3.8,'11111222,11111222,11111222' 
TCOON,ioos:station:TCOON:031:1,2009-01-01T05:00:00Z,28.4073,-96.7122,0.0,1.4,43.0,2.6,'11111222,11111222,11111222' 
TCOON,ioos:station:TCOON:031:1,2009-01-01T06:00:00Z,28.4073,-96.7122,0.0,1.1,25.0,1.4,'11111222,11111222,11111222' 
TCOON,ioos:station:TCOON:031:1,2009-01-01T07:00:00Z,28.4073,-96.7122,0.0,2.9,36.0,3.6,'11111222,11111222,11111222' 
TCOON,ioos:station:TCOON:031:1,2009-01-01T08:00:00Z,28.4073,-96.7122,0.0,2.2,19.0,3.7,'11111222,11111222,11111222' 
TCOON,ioos:station:TCOON:031:1,2009-01-01T09:00:00Z,28.4073,-96.7122,0.0,2.6,358.0,3.8,'11111222,11111222,11111222' 
TCOON,ioos:station:TCOON:031:1,2009-01-01T10:00:00Z,28.4073,-96.7122,0.0,2.3,7.0,3.7,'11111222,11111222,11111222' 
TCOON,ioos:station:TCOON:031:1,2009-01-01T11:00:00Z,28.4073,-96.7122,0.0,2.6,17.0,3.6,'11111222,11111222,11111222' 
TCOON,ioos:station:TCOON:031:1,2009-01-01T12:00:00Z,28.4073,-96.7122,0.0,2.7,6.0,3.9,'11111222,11111222,11111222' 
TCOON,ioos:station:TCOON:031:1,2009-01-01T13:00:00Z,28.4073,-96.7122,0.0,2.7,7.0,3.9,'11111222,11111222,11111222' 
TCOON,ioos:station:TCOON:031:1,2009-01-01T14:00:00Z,28.4073,-96.7122,0.0,2.1,6.0,2.6,'11111222,11111222,11111222' 
TCOON,ioos:station:TCOON:031:1,2009-01-01T15:00:00Z,28.4073,-96.7122,0.0,3.8,42.0,5.2,'11111222,11111222,11111222' 
TCOON,ioos:station:TCOON:031:1,2009-01-01T16:00:00Z,28.4073,-96.7122,0.0,4.6,75.0,6.9,'11111222,11111222,11111222' 
TCOON,ioos:station:TCOON:031:1,2009-01-01T17:00:00Z,28.4073,-96.7122,0.0,4.0,71.0,6.7,'11111222,11111222,11111222' 
TCOON,ioos:station:TCOON:031:1,2009-01-01T18:00:00Z,28.4073,-96.7122,0.0,4.3,84.0,7.0,'11111222,11111222,11111222' 
TCOON,ioos:station:TCOON:031:1,2009-01-01T19:00:00Z,28.4073,-96.7122,0.0,4.7,102.0,6.6,'11111222,11111222,11111222' 
TCOON,ioos:station:TCOON:031:1,2009-01-01T20:00:00Z,28.4073,-96.7122,0.0,4.0,94.0,4.9,'11111222,11111222,11111222' 
TCOON,ioos:station:TCOON:031:1,2009-01-01T21:00:00Z,28.4073,-96.7122,0.0,4.6,110.0,7.0,'11111222,11111222,11111222' 
TCOON,ioos:station:TCOON:031:1,2009-01-01T22:00:00Z,28.4073,-96.7122,0.0,4.8,111.0,6.4,'11111222,11111222,11111222' 
TCOON,ioos:station:TCOON:031:1,2009-01-01T23:00:00Z,28.4073,-96.7122,0.0,3.2,103.0,4.8,'11111222,11111222,11111222' 
TCOON,ioos:station:TCOON:031:1,2009-01-02T00:00:00Z,28.4073,-96.7122,0.0,2.0,96.0,2.2,'11111222,11111222,11111222' 
TCOON,ioos:station:TCOON:031:1,2009-01-02T01:00:00Z,28.4073,-96.7122,0.0,2.1,86.0,2.6,'11111222,11111222,11111222' 
TCOON,ioos:station:TCOON:031:1,2009-01-02T02:00:00Z,28.4073,-96.7122,0.0,3.9,111.0,4.8,'11111222,11111222,11111222' 
TCOON,ioos:station:TCOON:031:1,2009-01-02T03:00:00Z,28.4073,-96.7122,0.0,3.8,128.0,4.6,'11111222,11111222,11111222' 
TCOON,ioos:station:TCOON:031:1,2009-01-02T04:00:00Z,28.4073,-96.7122,0.0,3.5,135.0,4.9,'11111222,11111222,11111222' 
TCOON,ioos:station:TCOON:031:1,2009-01-02T05:00:00Z,28.4073,-96.7122,0.0,3.9,138.0,4.9,'11111222,11111222,11111222' 
TCOON,ioos:station:TCOON:031:1,2009-01-02T06:00:00Z,28.4073,-96.7122,0.0,1.9,146.0,2.6,'11111222,11111222,11111222' 
TCOON,ioos:station:TCOON:031:1,2009-01-02T07:00:00Z,28.4073,-96.7122,0.0,2.9,154.0,3.2,'11111222,11111222,11111222' 
TCOON,ioos:station:TCOON:031:1,2009-01-02T08:00:00Z,28.4073,-96.7122,0.0,3.3,164.0,3.9,'11111222,11111222,11111222' 
TCOON,ioos:station:TCOON:031:1,2009-01-02T09:00:00Z,28.4073,-96.7122,0.0,2.2,163.0,2.9,'11111222,11111222,11111222' 
TCOON,ioos:station:TCOON:031:1,2009-01-02T10:00:00Z,28.4073,-96.7122,0.0,1.2,297.0,1.5,'11111222,11111222,11111222' 
TCOON,ioos:station:TCOON:031:1,2009-01-02T11:00:00Z,28.4073,-96.7122,0.0,0.7,252.0,1.0,'11111222,11111222,11111222' 
TCOON,ioos:station:TCOON:031:1,2009-01-02T12:00:00Z,28.4073,-96.7122,0.0,0.3,343.0,0.4,'11111222,11111222,11111222' 
TCOON,ioos:station:TCOON:031:1,2009-01-02T13:00:00Z,28.4073,-96.7122,0.0,0.9,345.0,1.4,'11111222,11111222,11111222' 
TCOON,ioos:station:TCOON:031:1,2009-01-02T14:00:00Z,28.4073,-96.7122,0.0,0.4,359.0,0.6,'11111222,11111222,11111222' 
TCOON,ioos:station:TCOON:031:1,2009-01-02T15:00:00Z,28.4073,-96.7122,0.0,0.6,127.0,0.9,'11111222,11111222,11111222' 
TCOON,ioos:station:TCOON:031:1,2009-01-02T16:00:00Z,28.4073,-96.7122,0.0,2.1,148.0,2.5,'11111222,11111222,11111222' 
TCOON,ioos:station:TCOON:031:1,2009-01-02T17:00:00Z,28.4073,-96.7122,0.0,2.9,154.0,3.7,'11111222,11111222,11111222' 
TCOON,ioos:station:TCOON:031:1,2009-01-02T18:00:00Z,28.4073,-96.7122,0.0,5.3,152.0,6.0,'11111222,11111222,11111222' 
TCOON,ioos:station:TCOON:031:1,2009-01-02T19:00:00Z,28.4073,-96.7122,0.0,3.7,145.0,4.4,'11111222,11111222,11111222' 
TCOON,ioos:station:TCOON:031:1,2009-01-02T20:00:00Z,28.4073,-96.7122,0.0,3.8,142.0,4.5,'11111222,11111222,11111222' 
TCOON,ioos:station:TCOON:031:1,2009-01-02T21:00:00Z,28.4073,-96.7122,0.0,3.9,139.0,4.3,'11111222,11111222,11111222' 
TCOON,ioos:station:TCOON:031:1,2009-01-02T22:00:00Z,28.4073,-96.7122,0.0,3.9,145.0,4.8,'11111222,11111222,11111222' 
TCOON,ioos:station:TCOON:031:1,2009-01-02T23:00:00Z,28.4073,-96.7122,0.0,4.8,130.0,5.4,'11111222,11111222,11111222' 
TCOON,ioos:station:TCOON:031:1,2009-01-03T00:00:00Z,28.4073,-96.7122,0.0,4.1,116.0,5.0,'11111222,11111222,11111222' 
TCOON,ioos:station:TCOON:031:1,2009-01-03T01:00:00Z,28.4073,-96.7122,0.0,3.8,109.0,5.2,'11111222,11111222,11111222' 
TCOON,ioos:station:TCOON:031:1,2009-01-03T02:00:00Z,28.4073,-96.7122,0.0,6.3,122.0,7.8,'11111222,11111222,11111222' 
TCOON,ioos:station:TCOON:031:1,2009-01-03T03:00:00Z,28.4073,-96.7122,0.0,6.2,129.0,7.6,'11111222,11111222,11111222' 
TCOON,ioos:station:TCOON:031:1,2009-01-03T04:00:00Z,28.4073,-96.7122,0.0,5.2,136.0,6.2,'11111222,11111222,11111222' 
TCOON,ioos:station:TCOON:031:1,2009-01-03T05:00:00Z,28.4073,-96.7122,0.0,6.3,128.0,7.6,'11111222,11111222,11111222' 
TCOON,ioos:station:TCOON:031:1,2009-01-03T06:00:00Z,28.4073,-96.7122,0.0,6.6,133.0,7.2,'11111222,11111222,11111222' 
TCOON,ioos:station:TCOON:031:1,2009-01-03T07:00:00Z,28.4073,-96.7122,0.0,5.0,145.0,5.9,'11111222,11111222,11111222' 
TCOON,ioos:station:TCOON:031:1,2009-01-03T08:00:00Z,28.4073,-96.7122,0.0,3.4,157.0,3.9,'11111222,11111222,11111222' 
TCOON,ioos:station:TCOON:031:1,2009-01-03T09:00:00Z,28.4073,-96.7122,0.0,6.3,154.0,7.0,'11111222,11111222,11111222' 
TCOON,ioos:station:TCOON:031:1,2009-01-03T10:00:00Z,28.4073,-96.7122,0.0,12.4,131.0,14.7,'11111222,11111222,11111222' 
TCOON,ioos:station:TCOON:031:1,2009-01-03T11:00:00Z,28.4073,-96.7122,0.0,11.8,136.0,14.1,'11111222,11111222,11111222' 
TCOON,ioos:station:TCOON:031:1,2009-01-03T12:00:00Z,28.4073,-96.7122,0.0,7.1,140.0,9.6,'11111222,11111222,11111222' 
TCOON,ioos:station:TCOON:031:1,2009-01-03T13:00:00Z,28.4073,-96.7122,0.0,8.3,120.0,10.9,'11111222,11111222,11111222' 
TCOON,ioos:station:TCOON:031:1,2009-01-03T14:00:00Z,28.4073,-96.7122,0.0,7.2,119.0,8.8,'11111222,11111222,11111222' 
TCOON,ioos:station:TCOON:031:1,2009-01-03T15:00:00Z,28.4073,-96.7122,0.0,6.8,118.0,9.4,'11111222,11111222,11111222' 
TCOON,ioos:station:TCOON:031:1,2009-01-03T16:00:00Z,28.4073,-96.7122,0.0,3.9,156.0,4.5,'11111222,11111222,11111222' 
TCOON,ioos:station:TCOON:031:1,2009-01-03T17:00:00Z,28.4073,-96.7122,0.0,4.3,161.0,5.0,'11111222,11111222,11111222' 
TCOON,ioos:station:TCOON:031:1,2009-01-03T18:00:00Z,28.4073,-96.7122,0.0,4.4,154.0,5.6,'11111222,11111222,11111222' 
TCOON,ioos:station:TCOON:031:1,2009-01-03T19:00:00Z,28.4073,-96.7122,0.0,7.8,161.0,9.1,'11111222,11111222,11111222' 
TCOON,ioos:station:TCOON:031:1,2009-01-03T20:00:00Z,28.4073,-96.7122,0.0,4.2,152.0,5.3,'11111222,11111222,11111222' 
TCOON,ioos:station:TCOON:031:1,2009-01-03T21:00:00Z,28.4073,-96.7122,0.0,5.1,146.0,6.0,'11111222,11111222,11111222' 
TCOON,ioos:station:TCOON:031:1,2009-01-03T22:00:00Z,28.4073,-96.7122,0.0,5.8,146.0,6.4,'11111222,11111222,11111222' 
TCOON,ioos:station:TCOON:031:1,2009-01-03T23:00:00Z,28.4073,-96.7122,0.0,6.3,130.0,6.9,'11111222,11111222,11111222' 
TCOON,ioos:station:TCOON:031:1,2009-01-04T00:00:00Z,28.4073,-96.7122,0.0,6.8,127.0,8.2,'11111222,11111222,11111222' 
TCOON,ioos:station:TCOON:031:1,2009-01-04T01:00:00Z,28.4073,-96.7122,0.0,6.5,128.0,8.4,'11111222,11111222,11111222' 
TCOON,ioos:station:TCOON:031:1,2009-01-04T02:00:00Z,28.4073,-96.7122,0.0,6.7,129.0,8.0,'11111222,11111222,11111222' 
TCOON,ioos:station:TCOON:031:1,2009-01-04T03:00:00Z,28.4073,-96.7122,0.0,6.6,135.0,7.5,'11111222,11111222,11111222' 
TCOON,ioos:station:TCOON:031:1,2009-01-04T04:00:00Z,28.4073,-96.7122,0.0,6.4,128.0,7.2,'11111222,11111222,11111222' 
TCOON,ioos:station:TCOON:031:1,2009-01-04T05:00:00Z,28.4073,-96.7122,0.0,3.9,127.0,5.0,'11111222,11111222,11111222' 
TCOON,ioos:station:TCOON:031:1,2009-01-04T06:00:00Z,28.4073,-96.7122,0.0,4.9,108.0,5.9,'11111222,11111222,11111222' 
TCOON,ioos:station:TCOON:031:1,2009-01-04T07:00:00Z,28.4073,-96.7122,0.0,4.0,117.0,5.9,'11111222,11111222,11111222' 
TCOON,ioos:station:TCOON:031:1,2009-01-04T08:00:00Z,28.4073,-96.7122,0.0,3.6,117.0,4.2,'11111222,11111222,11111222' 
TCOON,ioos:station:TCOON:031:1,2009-01-04T09:00:00Z,28.4073,-96.7122,0.0,1.8,179.0,2.4,'11111222,11111222,11111222' 
TCOON,ioos:station:TCOON:031:1,2009-01-04T10:00:00Z,28.4073,-96.7122,0.0,0.3,196.0,0.4,'11111222,11111222,11111222' 
TCOON,ioos:station:TCOON:031:1,2009-01-04T11:00:00Z,28.4073,-96.7122,0.0,0.9,113.0,1.3,'11111222,11111222,11111222' 
TCOON,ioos:station:TCOON:031:1,2009-01-04T12:00:00Z,28.4073,-96.7122,0.0,1.8,99.0,2.7,'11111222,11111222,11111222' 
TCOON,ioos:station:TCOON:031:1,2009-01-04T13:00:00Z,28.4073,-96.7122,0.0,1.3,62.0,2.4,'11111222,11111222,11111222' 
TCOON,ioos:station:TCOON:031:1,2009-01-04T14:00:00Z,28.4073,-96.7122,0.0,1.8,55.0,2.2,'11111222,11111222,11111222' 
TCOON,ioos:station:TCOON:031:1,2009-01-04T15:00:00Z,28.4073,-96.7122,0.0,2.4,75.0,3.7,'11111222,11111222,11111222' 
TCOON,ioos:station:TCOON:031:1,2009-01-04T16:00:00Z,28.4073,-96.7122,0.0,2.8,67.0,3.6,'11111222,11111222,11111222' 
TCOON,ioos:station:TCOON:031:1,2009-01-04T17:00:00Z,28.4073,-96.7122,0.0,6.4,102.0,8.7,'11111222,11111222,11111222' 
TCOON,ioos:station:TCOON:031:1,2009-01-04T18:00:00Z,28.4073,-96.7122,0.0,4.5,119.0,5.2,'11111222,11111222,11111222' 
TCOON,ioos:station:TCOON:031:1,2009-01-04T19:00:00Z,28.4073,-96.7122,0.0,6.9,111.0,8.0,'11111222,11111222,11111222' 
TCOON,ioos:station:TCOON:031:1,2009-01-04T20:00:00Z,28.4073,-96.7122,0.0,6.2,108.0,7.0,'11111222,11111222,11111222' 
TCOON,ioos:station:TCOON:031:1,2009-01-04T21:00:00Z,28.4073,-96.7122,0.0,5.7,312.0,8.0,'11111222,11111222,11111222' 
TCOON,ioos:station:TCOON:031:1,2009-01-04T22:00:00Z,28.4073,-96.7122,0.0,5.5,353.0,8.2,'11111222,11111222,11111222' 
TCOON,ioos:station:TCOON:031:1,2009-01-04T23:00:00Z,28.4073,-96.7122,0.0,5.8,353.0,8.6,'11111222,11111222,11111222' 
TCOON,ioos:station:TCOON:031:1,2009-01-05T00:00:00Z,28.4073,-96.7122,0.0,6.5,347.0,9.6,'11111222,11111222,11111222' 
TCOON,ioos:station:TCOON:031:1,2009-01-05T01:00:00Z,28.4073,-96.7122,0.0,7.4,350.0,10.4,'11111222,11111222,11111222' 
TCOON,ioos:station:TCOON:031:1,2009-01-05T02:00:00Z,28.4073,-96.7122,0.0,8.0,337.0,9.6,'11111222,11111222,11111222' 
TCOON,ioos:station:TCOON:031:1,2009-01-05T03:00:00Z,28.4073,-96.7122,0.0,6.7,348.0,9.4,'11111222,11111222,11111222' 
TCOON,ioos:station:TCOON:031:1,2009-01-05T04:00:00Z,28.4073,-96.7122,0.0,6.8,349.0,10.2,'11111222,11111222,11111222' 
TCOON,ioos:station:TCOON:031:1,2009-01-05T05:00:00Z,28.4073,-96.7122,0.0,6.2,341.0,10.3,'11111222,11111222,11111222' 
TCOON,ioos:station:TCOON:031:1,2009-01-05T06:00:00Z,28.4073,-96.7122,0.0,6.3,343.0,9.0,'11111222,11111222,11111222' 
TCOON,ioos:station:TCOON:031:1,2009-01-05T07:00:00Z,28.4073,-96.7122,0.0,6.2,339.0,10.3,'11111222,11111222,11111222' 
TCOON,ioos:station:TCOON:031:1,2009-01-05T08:00:00Z,28.4073,-96.7122,0.0,6.2,338.0,8.4,'11111222,11111222,11111222' 
TCOON,ioos:station:TCOON:031:1,2009-01-05T09:00:00Z,28.4073,-96.7122,0.0,4.9,330.0,7.8,'11111222,11111222,11111222' 
TCOON,ioos:station:TCOON:031:1,2009-01-05T10:00:00Z,28.4073,-96.7122,0.0,4.7,342.0,7.8,'11111222,11111222,11111222' 
TCOON,ioos:station:TCOON:031:1,2009-01-05T11:00:00Z,28.4073,-96.7122,0.0,4.4,336.0,5.9,'11111222,11111222,11111222' 
TCOON,ioos:station:TCOON:031:1,2009-01-05T12:00:00Z,28.4073,-96.7122,0.0,3.2,329.0,6.5,'11111222,11111222,11111222' 
TCOON,ioos:station:TCOON:031:1,2009-01-05T13:00:00Z,28.4073,-96.7122,0.0,5.3,336.0,7.3,'11111222,11111222,11111222' 
TCOON,ioos:station:TCOON:031:1,2009-01-05T14:00:00Z,28.4073,-96.7122,0.0,4.8,343.0,6.7,'11111222,11111222,11111222' 
TCOON,ioos:station:TCOON:031:1,2009-01-05T15:00:00Z,28.4073,-96.7122,0.0,4.0,349.0,5.6,'11111222,11111222,11111222' 
TCOON,ioos:station:TCOON:031:1,2009-01-05T16:00:00Z,28.4073,-96.7122,0.0,3.5,325.0,6.7,'11111222,11111222,11111222' 
TCOON,ioos:station:TCOON:031:1,2009-01-05T17:00:00Z,28.4073,-96.7122,0.0,3.9,335.0,5.8,'11111222,11111222,11111222' 
TCOON,ioos:station:TCOON:031:1,2009-01-05T18:00:00Z,28.4073,-96.7122,0.0,4.6,307.0,6.9,'11111222,11111222,11111222' 
TCOON,ioos:station:TCOON:031:1,2009-01-05T19:00:00Z,28.4073,-96.7122,0.0,4.6,320.0,7.2,'11111222,11111222,11111222' 
TCOON,ioos:station:TCOON:031:1,2009-01-05T20:00:00Z,28.4073,-96.7122,0.0,4.5,328.0,6.4,'11111222,11111222,11111222' 
TCOON,ioos:station:TCOON:031:1,2009-01-05T21:00:00Z,28.4073,-96.7122,0.0,5.2,326.0,7.5,'11111222,11111222,11111222' 
TCOON,ioos:station:TCOON:031:1,2009-01-05T22:00:00Z,28.4073,-96.7122,0.0,5.9,335.0,9.0,'11111222,11111222,11111222' 
TCOON,ioos:station:TCOON:031:1,2009-01-05T23:00:00Z,28.4073,-96.7122,0.0,4.3,340.0,6.1,'11111222,11111222,11111222' 
TCOON,ioos:station:TCOON:031:1,2009-01-06T00:00:00Z,28.4073,-96.7122,0.0,4.8,339.0,6.8,'11111222,11111222,11111222' 
TCOON,ioos:station:TCOON:031:1,2009-01-06T01:00:00Z,28.4073,-96.7122,0.0,3.8,341.0,4.9,'11111222,11111222,11111222' 
TCOON,ioos:station:TCOON:031:1,2009-01-06T02:00:00Z,28.4073,-96.7122,0.0,3.6,335.0,5.6,'11111222,11111222,11111222' 
TCOON,ioos:station:TCOON:031:1,2009-01-06T03:00:00Z,28.4073,-96.7122,0.0,3.7,336.0,5.3,'11111222,11111222,11111222' 
TCOON,ioos:station:TCOON:031:1,2009-01-06T04:00:00Z,28.4073,-96.7122,0.0,3.4,343.0,4.0,'11111222,11111222,11111222' 
TCOON,ioos:station:TCOON:031:1,2009-01-06T05:00:00Z,28.4073,-96.7122,0.0,2.6,341.0,3.7,'11111222,11111222,11111222' 
TCOON,ioos:station:TCOON:031:1,2009-01-06T06:00:00Z,28.4073,-96.7122,0.0,2.6,353.0,4.1,'11111222,11111222,11111222' 
TCOON,ioos:station:TCOON:031:1,2009-01-06T07:00:00Z,28.4073,-96.7122,0.0,2.1,351.0,2.6,'11111222,11111222,11111222' 
TCOON,ioos:station:TCOON:031:1,2009-01-06T08:00:00Z,28.4073,-96.7122,0.0,2.2,323.0,3.1,'11111222,11111222,11111222' 
TCOON,ioos:station:TCOON:031:1,2009-01-06T09:00:00Z,28.4073,-96.7122,0.0,2.4,318.0,2.8,'11111222,11111222,11111222' 
TCOON,ioos:station:TCOON:031:1,2009-01-06T10:00:00Z,28.4073,-96.7122,0.0,3.0,322.0,3.9,'11111222,11111222,11111222' 
TCOON,ioos:station:TCOON:031:1,2009-01-06T11:00:00Z,28.4073,-96.7122,0.0,2.7,324.0,4.8,'11111222,11111222,11111222' 
TCOON,ioos:station:TCOON:031:1,2009-01-06T12:00:00Z,28.4073,-96.7122,0.0,2.2,335.0,3.2,'11111222,11111222,11111222' 
TCOON,ioos:station:TCOON:031:1,2009-01-06T13:00:00Z,28.4073,-96.7122,0.0,1.5,316.0,2.4,'11111222,11111222,11111222' 
TCOON,ioos:station:TCOON:031:1,2009-01-06T14:00:00Z,28.4073,-96.7122,0.0,1.3,311.0,1.6,'11111222,11111222,11111222' 
TCOON,ioos:station:TCOON:031:1,2009-01-06T15:00:00Z,28.4073,-96.7122,0.0,5.5,298.0,7.8,'11111222,11111222,11111222' 
TCOON,ioos:station:TCOON:031:1,2009-01-06T16:00:00Z,28.4073,-96.7122,0.0,3.0,302.0,4.9,'11111222,11111222,11111222' 
TCOON,ioos:station:TCOON:031:1,2009-01-06T17:00:00Z,28.4073,-96.7122,0.0,2.5,352.0,3.1,'11111222,11111222,11111222' 
TCOON,ioos:station:TCOON:031:1,2009-01-06T18:00:00Z,28.4073,-96.7122,0.0,2.5,184.0,2.6,'11111222,11111222,11111222' 
TCOON,ioos:station:TCOON:031:1,2009-01-06T19:00:00Z,28.4073,-96.7122,0.0,3.9,233.0,5.9,'11111222,11111222,11111222' 
TCOON,ioos:station:TCOON:031:1,2009-01-06T20:00:00Z,28.4073,-96.7122,0.0,7.1,269.0,8.0,'11111222,11111222,11111222' 
TCOON,ioos:station:TCOON:031:1,2009-01-06T21:00:00Z,28.4073,-96.7122,0.0,4.4,248.0,4.7,'11111222,11111222,11111222' 
TCOON,ioos:station:TCOON:031:1,2009-01-06T22:00:00Z,28.4073,-96.7122,0.0,4.9,259.0,5.4,'11111222,11111222,11111222' 
TCOON,ioos:station:TCOON:031:1,2009-01-06T23:00:00Z,28.4073,-96.7122,0.0,3.5,256.0,4.3,'11111222,11111222,11111222' 
TCOON,ioos:station:TCOON:031:1,2009-01-07T01:00:00Z,28.4073,-96.7122,0.0,2.0,251.0,2.2,'11111222,11111222,11111222' 
TCOON,ioos:station:TCOON:031:1,2009-01-07T02:00:00Z,28.4073,-96.7122,0.0,1.9,250.0,2.1,'11111222,11111222,11111222' 
TCOON,ioos:station:TCOON:031:1,2009-01-07T03:00:00Z,28.4073,-96.7122,0.0,1.6,239.0,1.7,'11111222,11111222,11111222' 
TCOON,ioos:station:TCOON:031:1,2009-01-07T04:00:00Z,28.4073,-96.7122,0.0,3.9,238.0,4.2,'11111222,11111222,11111222' 
TCOON,ioos:station:TCOON:031:1,2009-01-07T05:00:00Z,28.4073,-96.7122,0.0,5.1,266.0,5.2,'11111222,11111222,11111222' 
TCOON,ioos:station:TCOON:031:1,2009-01-07T06:00:00Z,28.4073,-96.7122,0.0,4.9,276.0,5.9,'11111222,11111222,11111222' 
TCOON,ioos:station:TCOON:031:1,2009-01-07T07:00:00Z,28.4073,-96.7122,0.0,3.1,289.0,4.3,'11111222,11111222,11111222' 
TCOON,ioos:station:TCOON:031:1,2009-01-07T08:00:00Z,28.4073,-96.7122,0.0,2.5,309.0,3.1,'11111222,11111222,11111222' 
TCOON,ioos:station:TCOON:031:1,2009-01-07T09:00:00Z,28.4073,-96.7122,0.0,2.1,338.0,2.4,'11111222,11111222,11111222' 
TCOON,ioos:station:TCOON:031:1,2009-01-07T10:00:00Z,28.4073,-96.7122,0.0,2.0,12.0,2.8,'11111222,11111222,11111222' 
TCOON,ioos:station:TCOON:031:1,2009-01-07T11:00:00Z,28.4073,-96.7122,0.0,1.6,25.0,2.1,'11111222,11111222,11111222' 
TCOON,ioos:station:TCOON:031:1,2009-01-07T12:00:00Z,28.4073,-96.7122,0.0,2.1,28.0,2.3,'11111222,11111222,11111222' 
TCOON,ioos:station:TCOON:031:1,2009-01-07T13:00:00Z,28.4073,-96.7122,0.0,0.0,185.0,99.0,'11111222,11111222,11144222' 
TCOON,ioos:station:TCOON:031:1,2009-01-07T14:00:00Z,28.4073,-96.7122,0.0,2.5,188.0,2.8,'11111222,11111222,11111222' 
TCOON,ioos:station:TCOON:031:1,2009-01-07T15:00:00Z,28.4073,-96.7122,0.0,4.2,257.0,5.6,'11111222,11111222,11111222' 
TCOON,ioos:station:TCOON:031:1,2009-01-07T16:00:00Z,28.4073,-96.7122,0.0,1.8,250.0,2.5,'11111222,11111222,11111222' 
TCOON,ioos:station:TCOON:031:1,2009-01-07T17:00:00Z,28.4073,-96.7122,0.0,1.7,216.0,2.0,'11111222,11111222,11111222' 
TCOON,ioos:station:TCOON:031:1,2009-01-07T18:00:00Z,28.4073,-96.7122,0.0,5.4,180.0,5.9,'11111222,11111222,11111222' 
TCOON,ioos:station:TCOON:031:1,2009-01-07T19:00:00Z,28.4073,-96.7122,0.0,5.0,163.0,5.4,'11111222,11111222,11111222' 
TCOON,ioos:station:TCOON:031:1,2009-01-07T20:00:00Z,28.4073,-96.7122,0.0,6.3,156.0,7.4,'11111222,11111222,11111222' 
TCOON,ioos:station:TCOON:031:1,2009-01-07T21:00:00Z,28.4073,-96.7122,0.0,7.0,137.0,8.1,'11111222,11111222,11111222' 
TCOON,ioos:station:TCOON:031:1,2009-01-07T22:00:00Z,28.4073,-96.7122,0.0,6.3,138.0,7.7,'11111222,11111222,11111222' 
TCOON,ioos:station:TCOON:031:1,2009-01-07T23:00:00Z,28.4073,-96.7122,0.0,5.8,137.0,6.4,'11111222,11111222,11111222' 
TCOON,ioos:station:TCOON:031:1,2009-01-08T00:00:00Z,28.4073,-96.7122,0.0,6.6,141.0,7.6,'11111222,11111222,11111222' 
TCOON,ioos:station:TCOON:031:1,2009-01-08T01:00:00Z,28.4073,-96.7122,0.0,6.8,141.0,8.2,'11111222,11111222,11111222' 
TCOON,ioos:station:TCOON:031:1,2009-01-08T02:00:00Z,28.4073,-96.7122,0.0,5.2,138.0,6.0,'11111222,11111222,11111222' 
TCOON,ioos:station:TCOON:031:1,2009-01-08T03:00:00Z,28.4073,-96.7122,0.0,4.6,134.0,5.1,'11111222,11111222,11111222' 
TCOON,ioos:station:TCOON:031:1,2009-01-08T04:00:00Z,28.4073,-96.7122,0.0,2.9,125.0,3.2,'11111222,11111222,11111222' 
TCOON,ioos:station:TCOON:031:1,2009-01-08T05:00:00Z,28.4073,-96.7122,0.0,1.6,121.0,2.1,'11111222,11111222,11111222' 
TCOON,ioos:station:TCOON:031:1,2009-01-08T06:00:00Z,28.4073,-96.7122,0.0,0.9,132.0,1.8,'11111222,11111222,11111222' 
TCOON,ioos:station:TCOON:031:1,2009-01-08T07:00:00Z,28.4073,-96.7122,0.0,1.7,156.0,1.7,'11111222,11111222,11111222' 
TCOON,ioos:station:TCOON:031:1,2009-01-08T08:00:00Z,28.4073,-96.7122,0.0,1.3,188.0,1.6,'11111222,11111222,11111222' 
TCOON,ioos:station:TCOON:031:1,2009-01-08T09:00:00Z,28.4073,-96.7122,0.0,2.5,208.0,3.3,'11111222,11111222,11111222' 
TCOON,ioos:station:TCOON:031:1,2009-01-08T10:00:00Z,28.4073,-96.7122,0.0,2.1,217.0,2.5,'11111222,11111222,11111222' 
TCOON,ioos:station:TCOON:031:1,2009-01-08T11:00:00Z,28.4073,-96.7122,0.0,1.1,252.0,1.1,'11111222,11111222,11111222' 
TCOON,ioos:station:TCOON:031:1,2009-01-08T12:00:00Z,28.4073,-96.7122,0.0,1.0,267.0,1.1,'11111222,11111222,11111222' 
TCOON,ioos:station:TCOON:031:1,2009-01-08T13:00:00Z,28.4073,-96.7122,0.0,0.8,328.0,1.3,'11111222,11111222,11111222' 
TCOON,ioos:station:TCOON:031:1,2009-01-08T14:00:00Z,28.4073,-96.7122,0.0,0.4,314.0,0.4,'11111222,11111222,11111222' 
TCOON,ioos:station:TCOON:031:1,2009-01-08T15:00:00Z,28.4073,-96.7122,0.0,0.8,242.0,0.9,'11111222,11111222,11111222' 
TCOON,ioos:station:TCOON:031:1,2009-01-08T16:00:00Z,28.4073,-96.7122,0.0,0.3,239.0,0.5,'11111222,11111222,11111222' 
TCOON,ioos:station:TCOON:031:1,2009-01-08T17:00:00Z,28.4073,-96.7122,0.0,0.9,146.0,1.0,'11111222,11111222,11111222' 
TCOON,ioos:station:TCOON:031:1,2009-01-08T18:00:00Z,28.4073,-96.7122,0.0,5.0,124.0,5.2,'11111222,11111222,11111222' 
TCOON,ioos:station:TCOON:031:1,2009-01-08T19:00:00Z,28.4073,-96.7122,0.0,4.5,123.0,4.6,'11111222,11111222,11111222' 
TCOON,ioos:station:TCOON:031:1,2009-01-08T20:00:00Z,28.4073,-96.7122,0.0,4.8,126.0,5.0,'11111222,11111222,11111222' 
TCOON,ioos:station:TCOON:031:1,2009-01-08T21:00:00Z,28.4073,-96.7122,0.0,5.1,123.0,5.6,'11111222,11111222,11111222' 
TCOON,ioos:station:TCOON:031:1,2009-01-08T22:00:00Z,28.4073,-96.7122,0.0,5.7,111.0,6.7,'11111222,11111222,11111222' 
TCOON,ioos:station:TCOON:031:1,2009-01-08T23:00:00Z,28.4073,-96.7122,0.0,4.4,89.0,5.0,'11111222,11111222,11111222' 
TCOON,ioos:station:TCOON:031:1,2009-01-09T00:00:00Z,28.4073,-96.7122,0.0,3.0,75.0,3.6,'11111222,11111222,11111222' 
TCOON,ioos:station:TCOON:031:1,2009-01-09T01:00:00Z,28.4073,-96.7122,0.0,2.7,68.0,3.5,'11111222,11111222,11111222' 
TCOON,ioos:station:TCOON:031:1,2009-01-09T03:00:00Z,28.4073,-96.7122,0.0,5.1,95.0,6.4,'11111222,11111222,11111222' 
TCOON,ioos:station:TCOON:031:1,2009-01-09T04:00:00Z,28.4073,-96.7122,0.0,5.9,98.0,6.7,'11111222,11111222,11111222' 
TCOON,ioos:station:TCOON:031:1,2009-01-09T05:00:00Z,28.4073,-96.7122,0.0,5.7,106.0,6.7,'11111222,11111222,11111222' 
TCOON,ioos:station:TCOON:031:1,2009-01-09T06:00:00Z,28.4073,-96.7122,0.0,5.9,105.0,8.0,'11111222,11111222,11111222' 
TCOON,ioos:station:TCOON:031:1,2009-01-09T07:00:00Z,28.4073,-96.7122,0.0,5.4,105.0,6.9,'11111222,11111222,11111222' 
TCOON,ioos:station:TCOON:031:1,2009-01-09T08:00:00Z,28.4073,-96.7122,0.0,5.3,104.0,6.8,'11111222,11111222,11111222' 
TCOON,ioos:station:TCOON:031:1,2009-01-09T09:00:00Z,28.4073,-96.7122,0.0,4.7,112.0,6.2,'11111222,11111222,11111222' 
TCOON,ioos:station:TCOON:031:1,2009-01-09T10:00:00Z,28.4073,-96.7122,0.0,4.2,116.0,4.9,'11111222,11111222,11111222' 
TCOON,ioos:station:TCOON:031:1,2009-01-09T11:00:00Z,28.4073,-96.7122,0.0,4.3,107.0,5.0,'11111222,11111222,11111222' 
TCOON,ioos:station:TCOON:031:1,2009-01-09T12:00:00Z,28.4073,-96.7122,0.0,5.9,112.0,6.7,'11111222,11111222,11111222' 
TCOON,ioos:station:TCOON:031:1,2009-01-09T13:00:00Z,28.4073,-96.7122,0.0,4.9,112.0,5.7,'11111222,11111222,11111222' 
TCOON,ioos:station:TCOON:031:1,2009-01-09T14:00:00Z,28.4073,-96.7122,0.0,5.2,108.0,5.7,'11111222,11111222,11111222' 